FW9097 Weather Reports


time (UTC)temp
C
wind
direction
speed
KPH
gust
KPH
rain 1hr
cm
rain 24hr
cm
rain mn
cm
humidity
%
barometer
mb
20260503233048 30 0 1.6 8.0 0.00 0.00 0.00 38 1010.2
20260503231549 29 181 1.6 9.7 0.00 0.00 0.00 38 1010.5
20260503230054 29 0 1.6 8.0 0.00 0.00 0.00 40 1010.8
20260503224547 29 165 1.6 11.3 0.00 0.00 0.00 40 1011.0
20260503223044 28 121 3.2 8.0 0.00 0.00 0.00 41 1011.3
20260503221545 28 56 3.2 9.7 0.00 0.00 0.00 41 1011.5
20260503220054 28 321 0.0 6.4 0.00 0.00 0.00 42 1011.6
20260503214549 27 39 1.6 11.3 0.00 0.00 0.00 43 1011.8
20260503213048 27 0 1.6 9.7 0.00 0.00 0.00 42 1011.8
20260503211547 27 101 1.6 12.9 0.00 0.00 0.00 43 1011.9
20260503210047 27 325 1.6 8.0 0.00 0.00 0.00 43 1012.1
20260503204552 26 333 1.6 8.0 0.00 0.00 0.00 45 1012.4
20260503203054 26 325 1.6 9.7 0.00 0.00 0.00 47 1012.6
20260503201549 26 140 1.6 12.9 0.00 0.00 0.00 48 1012.7
20260503200051 26 98 3.2 12.9 0.00 0.00 0.00 47 1012.9
20260503194547 25 0 0.0 8.0 0.00 0.00 0.00 48 1013.1
20260503193051 25 119 1.6 9.7 0.00 0.00 0.00 49 1013.3
20260503191545 25 175 1.6 11.3 0.00 0.00 0.00 50 1013.4
20260503190050 24 180 4.8 11.3 0.00 0.00 0.00 48 1013.6
20260503184558 24 120 1.6 9.7 0.00 0.00 0.00 51 1013.7
20260503183047 23 60 1.6 6.4 0.00 0.00 0.00 53 1013.9
20260503181547 23 80 1.6 9.7 0.00 0.00 0.00 55 1013.9
20260503180104 22 117 1.6 11.3 0.00 0.00 0.00 55 1014.0
20260503174546 22 80 4.8 16.1 0.00 0.00 0.00 57 1014.1
20260503173102 21 81 3.2 11.3 0.00 0.00 0.00 57 1014.2
20260503171554 21 128 1.6 8.0 0.00 0.00 0.00 60 1014.3
20260503170108 20 160 3.2 11.3 0.00 0.00 0.00 60 1014.4
20260503160113 18 103 0.0 4.8 0.00 0.00 0.00 69 1014.6
20260503081551 10 0 0.0 0.0 0.00 0.00 0.00 84 1014.7
20260503071553 11 0 0.0 0.0 0.00 0.00 0.00 82 1014.7
20260503060109 13 0 0.0 0.0 0.00 0.00 0.00 78 1014.7
20260503054550 13 0 0.0 0.0 0.00 0.00 0.00 77 1014.6
20260503053052 13 0 0.0 0.0 0.00 0.00 0.00 75 1014.7
20260503051548 14 0 0.0 1.6 0.00 0.00 0.00 74 1014.6
20260503050048 15 0 0.0 0.0 0.00 0.00 0.00 73 1014.4
20260503044548 15 0 0.0 0.0 0.00 0.00 0.00 72 1014.3
20260503043051 16 0 0.0 3.2 0.00 0.00 0.00 70 1014.3
20260503041547 16 0 0.0 0.0 0.00 0.00 0.00 66 1014.0
20260503040057 17 0 0.0 1.6 0.00 0.00 0.00 63 1013.8
20260503034550 18 0 0.0 6.4 0.00 0.00 0.00 60 1013.6
20260503033049 19 0 0.0 6.4 0.00 0.00 0.00 58 1013.6
20260503031547 20 89 1.6 11.3 0.00 0.00 0.00 56 1013.5
20260503030050 20 82 3.2 6.4 0.00 0.00 0.00 56 1013.4
20260503024546 21 0 1.6 12.9 0.00 0.00 0.00 55 1013.2
20260503023056 21 76 3.2 11.3 0.00 0.00 0.00 54 1013.1
20260503021555 21 112 3.2 11.3 0.00 0.00 0.00 53 1013.0
20260503020056 22 163 1.6 12.9 0.00 0.00 0.00 53 1013.0
20260503014547 22 31 1.6 8.0 0.00 0.00 0.00 52 1012.9
20260503013045 22 123 1.6 8.0 0.00 0.00 0.00 52 1013.0
20260503011546 22 57 3.2 8.0 0.00 0.00 0.00 51 1012.9
20260503010050 23 122 1.6 11.3 0.00 0.00 0.00 51 1013.0
20260503004558 23 74 4.8 12.9 0.00 0.00 0.00 50 1013.1
20260503003102 23 67 3.2 14.5 0.00 0.00 0.00 52 1013.2
20260503001603 23 55 1.6 12.9 0.00 0.00 0.00 51 1013.1
20260503000046 23 59 3.2 14.5 0.00 0.00 0.00 51 1013.2
20260502234552 23 12 3.2 11.3 0.00 0.00 0.00 51 1013.6